GFSSW_700_temp_096.txt.gz
Temp
10 10 10 10 10 10 10 10 10 10 10 11 11 12 12 12 12 13 12 12 13 13 13 13 12 12 11 11 10 9 10 10 10 10 10 11 11 10 11 10 10 10 11 10 9
9 9 9 9 9 10 10 10 10 10 10 10 11 11 12 12 12 12 12 12 13 13 13 13 12 12 11 9 9 10 10 10 11 10 10 10 11 11 10 9 9 10 8 9 10
9 9 9 9 9 9 9 10 10 10 10 10 10 11 11 12 12 12 12 12 12 12 12 12 11 10 10 10 10 11 10 11 11 11 11 11 11 11 10 9 11 11 9 9 10
9 9 9 9 8 9 9 9 10 9 9 9 10 10 11 11 12 12 12 12 12 12 12 12 12 12 10 10 10 11 11 11 12 12 12 12 10 10 9 11 10 10 9 9 10
8 9 9 8 8 8 9 9 9 9 9 9 9 10 11 11 11 11 12 12 12 13 12 12 13 12 11 10 10 12 12 11 11 11 11 11 11 10 10 10 9 9 8 10 9
8 8 8 8 8 8 8 8 8 8 8 8 8 9 10 11 11 11 11 12 12 12 13 12 12 12 11 11 11 11 11 11 10 11 11 11 11 11 9 9 9 8 8 9 9
8 8 8 8 8 8 8 8 7 7 7 7 8 9 10 10 11 12 11 12 12 12 13 12 11 11 11 11 12 11 12 12 10 10 12 10 10 10 10 9 9 9 8 9 9
8 8 8 8 8 8 7 7 7 7 7 7 7 8 9 10 11 11 11 11 12 12 11 11 10 11 11 11 11 12 13 12 11 11 11 11 11 9 10 9 10 9 8 9 9
7 7 8 7 7 7 6 6 6 6 6 7 7 8 9 10 11 11 11 11 12 11 11 10 10 11 11 11 12 12 13 13 10 10 11 11 11 10 10 9 10 9 9 9 9
7 7 7 7 6 6 5 5 6 6 6 6 7 8 9 9 9 10 10 11 11 11 10 10 10 11 11 11 12 12 13 13 12 11 11 12 11 10 9 10 9 9 9 9 9
7 7 7 7 6 5 5 5 5 6 6 6 6 8 8 8 9 10 10 10 9 10 10 10 10 11 12 11 12 13 12 12 12 12 12 11 11 10 10 9 9 9 9 9 9
6 6 6 6 6 6 5 5 5 5 7 7 7 8 7 7 8 8 8 8 8 9 10 10 11 12 12 12 12 12 12 12 11 10 10 10 10 10 10 10 9 9 9 9 9
6 5 5 6 6 5 5 4 5 4 6 7 8 8 8 7 7 8 8 8 8 9 9 10 13 11 12 12 12 13 12 12 13 11 10 12 10 10 10 10 9 9 9 9 9
5 5 4 5 5 5 4 4 4 5 6 8 8 8 8 8 8 8 8 8 8 8 9 9 12 11 11 12 12 12 14 13 14 14 12 11 8 10 10 9 9 9 9 9 9
5 5 4 4 5 4 4 4 5 5 4 7 8 8 8 8 8 8 8 8 9 9 9 10 11 11 11 12 13 13 14 14 14 12 12 10 10 9 8 8 9 9 9 9 9
6 5 5 5 4 4 5 5 6 5 5 8 8 8 8 8 8 8 8 9 9 9 9 10 11 11 12 13 13 14 14 14 12 12 11 12 12 9 11 11 9 9 9 9 9
6 5 5 5 5 5 5 5 6 6 7 7 8 8 8 8 9 8 8 9 8 9 9 10 11 11 12 12 13 13 14 12 11 10 10 13 12 13 14 11 12 10 10 9 9
6 6 5 5 5 5 5 6 6 6 6 7 8 8 9 9 9 9 8 9 9 9 9 9 11 12 12 13 13 14 14 13 10 10 12 13 12 13 13 11 10 11 11 9 10
6 6 6 5 5 6 6 6 6 6 6 6 7 7 8 8 9 9 9 9 9 9 9 10 11 12 12 13 13 14 14 14 14 13 13 10 8 9 12 11 11 10 10 10 10
6 6 6 6 6 6 6 6 6 6 5 5 6 6 6 8 8 8 8 8 8 8 9 10 10 12 13 13 13 14 14 14 14 11 10 8 8 8 9 10 9 9 11 10 11
6 6 6 6 6 5 6 6 6 5 5 5 6 6 6 7 6 7 7 7 8 8 9 10 10 11 12 13 13 13 13 13 13 14 9 7 7 8 9 9 9 9 10 11 10
6 6 6 6 6 6 6 6 5 5 6 5 5 6 6 6 6 7 7 7 7 7 8 9 9 10 11 12 13 13 13 13 13 13 11 9 7 7 8 8 8 9 9 11 10
6 7 6 6 6 6 6 6 6 6 6 6 5 6 5 6 6 5 6 7 6 7 8 8 9 10 11 12 12 12 12 13 12 13 13 9 7 8 7 8 8 8 9 10 10
6 7 6 6 6 6 6 6 6 6 6 6 6 5 5 6 6 6 5 6 6 7 7 8 8 8 8 9 10 10 12 12 12 13 11 11 7 7 7 8 9 9 7 8 10
6 6 6 7 6 6 6 6 5 5 5 5 5 5 5 5 6 6 6 6 7 7 7 8 8 8 9 9 9 10 11 12 12 12 12 9 11 8 7 7 6 6 7 7 10
6 6 6 6 6 6 6 6 5 5 5 5 5 5 6 6 6 6 6 6 6 7 7 7 8 7 9 9 9 10 11 12 12 11 11 10 8 7 7 7 6 6 6 6 8
5 6 6 5 6 6 5 5 5 4 4 4 5 5 5 6 5 6 6 6 6 7 7 7 7 7 7 8 9 9 9 10 10 11 11 9 10 6 6 6 6 6 6 6 6

GFSSW_700_temp_102.txt.gz
Temp
10 10 10 10 9 9 9 10 10 10 10 10 10 11 11 11 12 12 11 11 12 12 12 12 12 12 11 10 9 9 9 9 9 9 10 11 10 11 11 12 10 10 10 11 10
9 9 9 9 10 9 9 9 9 10 10 10 10 10 11 11 11 12 11 12 12 12 12 12 12 12 10 10 9 9 10 10 9 10 10 10 10 11 11 11 10 10 10 10 10
9 9 9 9 9 9 9 9 9 9 9 10 10 10 10 11 11 11 12 12 12 12 12 11 11 11 10 10 9 9 10 10 9 9 9 10 9 10 11 10 11 11 10 10 9
9 9 9 9 9 9 9 9 9 9 9 9 10 10 10 10 11 11 11 12 11 12 12 12 11 11 10 10 10 10 10 9 10 9 9 9 10 9 10 10 10 10 11 10 9
8 8 8 8 8 8 8 8 8 9 9 9 9 9 10 10 10 11 11 11 11 11 12 12 12 11 10 10 11 10 10 10 11 10 9 9 9 9 10 9 9 9 9 9 9
8 8 8 8 8 8 8 8 8 8 8 8 8 9 9 9 10 10 11 11 11 11 11 12 11 10 10 10 10 10 10 11 10 10 10 9 8 8 9 9 9 9 9 9 9
7 7 7 7 7 7 7 7 7 7 7 7 8 8 9 8 10 10 10 10 10 10 11 11 11 10 10 10 10 10 10 10 10 10 10 9 9 9 9 8 8 9 9 9 9
7 7 7 7 7 7 6 6 6 6 6 6 7 7 8 8 9 10 9 10 10 10 10 10 10 10 10 10 10 11 10 10 10 10 10 9 9 9 9 9 8 9 9 9 9
7 7 7 7 7 6 6 5 5 6 6 6 6 7 7 8 9 9 9 9 10 10 10 10 9 10 10 10 10 10 10 10 10 10 10 9 9 9 9 9 9 9 9 9 8
6 6 6 6 6 5 5 5 5 5 6 6 6 7 7 7 7 7 8 9 9 9 10 9 9 9 10 10 10 10 11 10 11 10 10 9 10 10 9 9 9 9 9 9 9
6 6 6 6 5 5 4 5 5 6 6 6 6 7 6 7 7 7 7 8 9 9 9 9 8 10 11 10 11 11 11 11 10 11 10 9 9 10 9 9 9 9 9 9 9
5 5 5 5 5 4 4 5 5 5 6 6 7 6 6 7 8 7 6 8 9 8 8 8 9 10 10 10 10 11 11 11 10 9 9 9 9 8 9 9 10 9 8 10 9
5 5 5 5 5 4 4 4 5 5 6 6 7 7 7 7 7 7 7 7 9 8 8 8 9 9 9 10 10 11 11 11 11 10 9 8 8 9 8 8 8 9 8 8 8
5 5 5 5 4 4 4 4 5 5 6 7 7 7 7 7 7 7 7 7 7 8 8 8 9 9 9 10 11 11 11 11 11 11 10 9 8 9 9 9 8 8 8 8 9
5 6 5 5 5 4 4 4 5 5 4 7 7 7 7 7 7 7 7 7 7 7 8 8 9 9 9 10 11 11 12 12 11 10 10 9 9 10 9 8 9 10 9 8 9
6 6 5 5 5 4 4 4 5 6 6 7 7 7 8 7 7 7 7 7 7 8 8 8 9 9 9 10 11 11 11 11 10 9 9 11 11 11 11 12 11 9 9 9 9
6 6 5 5 5 4 5 5 6 5 6 6 7 8 8 8 7 7 7 7 7 7 8 8 8 9 9 10 9 10 11 8 7 7 8 11 10 12 11 11 10 10 10 9 9
6 6 6 5 5 5 5 6 6 5 6 6 7 7 8 8 8 8 8 7 7 8 8 8 9 9 10 10 10 10 11 11 7 6 8 10 10 12 12 11 10 10 10 9 10
6 6 5 5 5 5 6 6 5 5 5 6 7 7 7 8 8 8 8 8 7 7 7 8 9 10 10 11 11 11 11 12 12 10 10 9 10 11 12 11 10 9 9 9 10
6 6 5 5 5 5 6 6 5 5 5 5 6 7 7 7 8 8 7 7 7 7 8 8 8 10 10 11 11 11 12 11 12 7 8 8 9 12 12 11 11 10 9 9 9
6 5 5 5 5 5 5 5 5 5 5 5 5 6 6 7 8 7 7 7 7 8 8 8 9 10 10 11 11 11 11 12 12 12 6 5 9 12 12 11 10 10 10 8 9
6 5 5 5 5 5 5 5 5 5 5 5 5 5 6 6 7 8 7 7 7 8 8 8 8 9 10 10 11 12 12 12 13 10 11 11 10 11 12 12 11 11 11 10 10
6 6 6 6 6 6 6 6 5 5 5 5 5 5 6 6 6 6 7 7 7 8 8 8 9 9 10 10 10 11 12 12 13 13 11 10 10 11 11 10 10 10 10 10 10
6 6 6 6 6 6 6 6 5 5 5 5 5 5 5 5 5 5 6 6 7 8 8 8 8 9 9 9 9 10 11 12 12 12 12 12 12 12 12 11 10 11 11 10 10
6 6 6 6 6 5 6 6 5 5 5 5 5 5 5 5 5 5 5 6 6 7 7 8 8 8 8 9 9 10 11 11 11 12 12 12 13 13 12 12 11 11 10 10 10
6 6 6 5 5 5 5 5 5 5 5 5 5 5 5 5 5 5 5 6 6 6 7 7 7 8 8 8 8 9 10 11 11 11 12 12 12 12 12 12 12 11 10 10 10
5 5 5 5 5 5 5 5 4 3 4 4 4 4 4 4 4 4 5 5 5 6 6 6 7 7 7 8 9 8 8 8 10 11 12 12 12 12 12 11 10 10 10 9 10

GFSSW_700_temp_105.txt.gz
Temp
10 9 9 9 9 9 9 10 10 10 10 10 10 11 11 11 11 11 11 11 12 12 12 12 12 12 11 10 10 10 9 9 9 9 10 10 10 10 10 10 10 10 10 11 11
9 9 9 9 9 9 9 9 9 10 10 10 10 10 11 11 11 11 11 11 12 12 12 12 12 12 10 10 10 10 9 9 9 10 9 10 10 11 11 11 10 10 10 11 11
9 9 9 9 9 9 9 9 9 9 9 10 10 10 10 11 11 11 11 11 12 12 11 11 11 11 10 10 10 9 9 9 10 10 9 9 10 10 11 11 11 11 10 10 10
9 9 9 8 8 8 9 9 9 9 9 9 10 10 10 10 10 11 11 11 11 11 12 11 11 12 10 10 10 10 9 9 10 9 9 9 10 10 11 10 11 10 10 11 10
8 8 8 8 8 8 8 9 9 9 9 9 9 9 9 10 10 11 11 11 11 11 11 12 12 12 10 10 10 9 9 10 9 9 9 9 9 10 10 10 9 9 10 10 10
8 8 8 8 8 8 8 8 8 8 9 9 9 9 8 9 10 11 11 11 11 11 11 11 11 10 10 10 10 10 9 10 10 9 9 9 9 8 9 9 9 9 9 9 9
7 7 7 7 7 7 7 7 7 7 7 8 8 8 8 8 9 10 11 11 10 10 10 10 10 9 10 10 10 9 9 9 9 9 9 9 9 8 9 9 9 9 9 9 9
7 7 7 7 7 6 6 6 6 6 6 7 7 7 7 8 9 9 9 10 10 9 10 10 10 9 10 10 10 10 10 11 10 9 9 9 9 8 8 9 8 9 9 9 9
6 6 6 6 6 6 5 6 6 6 6 6 6 6 7 8 8 8 8 9 10 9 9 9 9 9 10 11 11 11 10 11 10 9 9 9 9 9 9 9 8 9 9 9 9
6 6 6 6 6 5 5 5 5 5 5 6 6 6 6 7 7 7 8 8 9 9 9 9 9 9 10 10 11 10 10 10 10 9 9 9 9 9 9 9 9 9 9 9 9
5 5 5 6 5 5 5 5 5 5 6 6 6 6 6 7 6 6 7 8 8 9 9 9 8 8 9 11 11 11 11 11 10 10 9 9 9 9 8 9 8 9 9 9 9
5 5 5 5 5 4 4 5 5 5 6 6 6 6 6 7 6 6 7 7 8 9 9 9 8 8 9 10 11 11 11 11 10 10 9 9 9 8 9 9 9 9 9 9 8
5 5 5 5 5 4 4 4 5 5 6 6 6 6 6 7 7 7 7 8 8 8 9 10 8 8 9 10 10 11 11 11 11 9 9 9 8 8 8 8 8 9 9 9 8
5 5 5 5 5 4 4 4 5 5 6 6 6 6 6 6 7 6 7 7 7 8 8 8 9 9 9 9 10 11 11 11 11 10 9 9 7 9 8 8 8 9 9 9 9
6 6 5 5 5 4 4 4 5 5 7 6 7 7 7 7 7 6 6 6 7 8 7 8 8 8 9 9 10 10 11 11 11 10 9 8 8 9 8 8 9 9 9 10 10
6 6 6 5 5 4 4 5 5 6 6 6 7 7 7 7 7 6 6 7 7 7 7 8 8 8 9 9 9 10 11 11 10 10 9 9 9 10 11 13 10 9 10 9 9
6 6 5 5 5 4 4 5 5 6 5 6 7 7 7 7 7 7 7 7 7 7 7 8 8 8 9 9 9 10 10 10 10 10 12 10 9 12 11 11 11 11 11 10 9
6 6 5 5 5 5 5 5 5 5 5 6 7 7 7 7 7 7 7 7 7 7 7 8 9 8 9 9 9 9 10 12 11 12 12 10 10 11 12 12 11 11 11 10 10
6 5 5 5 5 5 6 6 5 5 5 6 6 7 7 7 8 7 7 7 7 7 7 8 8 9 9 9 9 10 10 10 11 10 12 10 11 11 12 13 12 12 11 10 9
5 5 5 5 5 5 6 5 5 5 5 6 6 7 7 7 7 8 7 7 7 8 8 8 8 9 9 10 10 10 11 11 11 12 13 10 9 12 12 13 13 12 11 10 10
5 5 5 5 5 5 5 5 5 5 5 5 5 6 6 7 7 7 7 7 7 8 8 8 8 9 9 10 10 10 10 11 11 11 14 13 12 13 12 12 12 12 12 11 10
5 5 5 5 5 5 5 5 5 5 5 5 5 5 6 6 7 7 7 7 7 8 8 8 8 9 9 10 10 11 11 11 12 11 11 11 11 13 13 13 12 12 12 11 10
6 6 5 5 5 5 5 5 5 5 5 5 5 5 5 5 6 6 6 7 7 7 8 8 8 9 10 9 10 10 11 11 11 12 12 14 12 13 13 13 12 11 12 11 10
6 6 6 6 5 5 5 5 5 5 5 5 5 5 5 5 5 5 6 6 7 7 8 8 8 8 10 10 9 9 10 11 11 12 12 12 13 13 14 13 13 12 11 11 11
6 6 6 6 6 5 5 5 5 5 5 5 5 5 5 5 5 5 5 6 6 6 7 7 8 8 9 9 9 10 10 11 11 12 12 12 13 14 14 13 12 11 11 11 10
6 6 6 6 5 5 5 5 5 4 4 4 5 5 5 5 5 5 5 5 6 6 7 7 7 8 7 8 8 8 10 10 11 11 12 12 13 13 13 12 12 11 10 10 9
5 6 6 5 5 5 5 5 5 4 4 4 4 4 4 4 5 5 5 5 5 6 6 6 7 7 8 7 8 8 9 9 10 11 11 11 12 12 13 13 13 12 9 9 9

GFSSW_700_temp_108.txt.gz
Temp
10 10 10 10 10 10 10 10 10 10 10 11 11 11 11 11 11 11 11 11 12 12 12 12 12 12 11 9 9 10 9 9 9 9 10 9 10 11 11 10 10 10 11 11 11
10 9 9 9 9 10 10 10 10 10 10 10 11 11 11 11 11 11 11 11 12 12 12 12 12 11 11 9 9 9 9 9 9 9 10 10 9 11 10 10 10 10 11 11 11
10 9 9 9 9 9 9 9 10 10 10 10 10 10 10 11 11 11 11 11 12 12 11 11 11 11 9 9 8 8 9 10 9 9 10 9 10 10 10 9 10 11 11 11 10
9 9 9 9 9 9 9 9 9 9 9 10 10 10 10 10 9 11 11 11 11 11 11 11 11 11 9 10 9 9 10 9 9 9 10 9 9 10 9 9 10 10 10 11 10
9 9 8 8 8 8 8 8 9 9 9 9 9 9 9 9 10 11 11 11 11 11 11 11 11 9 9 10 9 9 10 10 9 9 9 9 9 10 11 10 11 10 10 10 10
8 8 8 8 8 8 8 8 8 8 9 9 9 9 9 8 10 10 11 11 11 11 11 11 11 9 9 9 9 9 9 10 10 9 9 9 9 10 10 10 10 9 10 10 10
7 7 7 7 7 7 7 7 7 7 8 8 8 8 8 7 9 10 10 11 10 10 10 10 10 8 9 9 9 10 9 10 10 10 9 9 9 9 10 10 9 9 9 9 9
7 7 7 7 7 6 6 6 6 6 6 7 7 7 7 8 8 9 10 10 10 10 9 10 10 8 9 10 10 10 9 9 9 9 9 9 8 9 9 8 7 8 7 9 9
6 6 6 6 6 6 6 6 6 6 6 6 6 6 5 7 8 7 9 9 10 10 10 10 10 8 9 10 11 11 10 10 9 9 9 9 8 8 9 7 8 8 8 8 7
6 6 6 6 6 5 6 5 6 5 6 5 6 6 6 5 7 7 8 9 9 9 9 9 9 9 10 11 12 13 11 10 10 9 9 9 9 9 9 8 8 8 8 8 7
5 5 5 5 6 5 5 5 5 5 5 5 5 6 6 6 6 6 7 8 9 9 8 8 9 10 11 12 12 13 13 10 9 9 9 9 9 9 9 9 8 8 8 8 8
5 5 5 5 5 5 5 5 5 4 5 6 6 6 6 7 6 6 7 6 7 8 8 8 10 11 11 11 11 12 13 10 9 9 9 9 9 9 9 10 8 8 9 8 8
5 5 6 5 5 5 5 5 5 5 6 6 6 6 6 7 6 7 7 7 7 8 8 10 11 10 9 10 12 13 13 11 11 9 10 9 9 8 7 8 8 8 8 9 9
5 5 6 5 5 4 5 5 6 6 7 6 6 6 6 6 7 6 6 7 7 8 9 10 10 9 10 10 11 13 11 11 10 10 9 9 9 8 8 8 8 7 8 9 8
6 6 6 5 5 4 5 5 6 6 9 6 6 6 6 7 7 6 6 7 8 9 9 11 10 9 10 11 10 11 11 11 11 11 11 10 10 9 9 7 9 9 8 9 9
6 6 6 5 5 5 5 5 6 7 8 7 6 7 7 7 7 6 6 7 8 8 9 10 9 10 11 10 10 10 10 10 11 11 14 12 11 9 9 9 9 9 8 8 9
6 6 5 5 4 5 5 6 7 9 6 7 7 7 8 8 7 7 7 8 9 9 9 9 9 9 10 10 9 10 11 11 11 12 14 13 12 13 12 12 10 10 10 9 9
6 6 5 5 5 5 6 6 7 6 6 6 7 7 8 8 8 8 8 9 8 9 11 10 10 9 9 11 11 10 10 13 12 14 15 11 13 13 13 12 11 10 11 11 9
6 5 5 5 5 6 6 7 6 6 6 6 7 8 8 8 8 8 8 9 9 9 10 11 11 10 10 10 11 11 11 12 13 14 15 12 12 13 13 12 12 10 9 9 9
5 5 5 5 5 6 7 6 6 5 5 6 8 7 9 8 8 8 8 8 8 8 8 10 11 10 10 10 10 12 12 12 13 15 16 14 14 15 14 14 13 12 10 10 11
5 5 5 5 6 6 7 5 5 5 5 6 7 7 7 8 8 9 8 7 8 8 8 9 10 11 10 10 11 10 11 12 13 14 17 16 15 13 13 13 13 13 12 11 10
5 6 5 5 6 6 6 5 5 6 5 6 6 6 7 7 7 8 8 8 8 7 8 8 10 11 11 11 11 12 12 12 13 14 14 15 14 14 14 13 13 13 12 9 11
5 5 6 6 7 6 6 5 5 6 6 6 6 6 6 6 7 7 7 8 8 7 8 8 10 11 11 11 10 11 12 12 13 14 15 15 16 14 14 13 13 12 12 12 11
6 6 6 6 6 6 6 6 6 5 5 5 5 5 6 6 6 6 7 6 7 7 8 8 9 10 12 11 12 11 11 11 12 13 14 15 14 14 14 14 14 13 11 11 11
6 6 6 6 6 5 6 5 6 6 5 5 5 5 6 6 6 6 6 6 6 7 7 7 9 9 10 9 10 11 11 11 12 13 14 15 14 14 13 14 14 13 12 11 11
6 6 6 6 6 6 5 5 5 5 4 5 5 5 5 6 6 6 6 6 7 6 6 7 8 8 9 9 9 10 10 11 12 13 12 13 13 13 13 14 14 13 12 11 11
6 6 6 6 5 6 6 5 4 4 4 4 4 5 5 4 5 4 5 5 5 6 6 7 8 8 10 9 9 10 9 9 10 10 11 13 12 12 13 13 13 13 12 11 11

GFSSW_700_temp_111.txt.gz
Temp
10 10 10 10 10 10 10 10 10 11 11 11 12 11 11 11 12 12 11 12 13 12 12 12 12 12 9 9 9 10 10 10 10 10 10 10 11 11 10 10 11 10 9 9 8
10 10 10 10 10 10 10 10 10 10 11 11 11 11 11 11 11 12 12 12 12 12 12 12 12 10 9 9 9 9 10 10 10 10 10 10 10 11 10 10 10 10 9 8 8
10 10 10 10 10 10 10 10 10 10 10 10 10 11 11 11 11 11 12 12 12 12 12 11 9 9 10 10 10 10 10 10 10 10 10 10 10 10 11 10 11 9 9 9 8
9 9 9 9 9 9 9 9 9 9 10 10 10 10 10 10 10 12 12 12 12 11 12 12 9 10 11 11 11 10 10 10 10 10 10 10 10 10 10 11 10 9 10 10 8
9 9 9 9 8 8 8 8 9 9 9 9 9 9 9 9 9 11 12 12 11 11 12 11 9 10 12 11 12 10 9 11 10 10 10 9 9 9 10 10 9 9 8 8 9
8 8 8 8 8 8 8 8 8 8 8 9 9 9 9 8 8 10 11 11 11 11 11 9 10 11 11 11 11 10 10 10 10 10 10 9 10 9 9 9 9 9 9 9 9
8 8 8 7 7 7 7 7 7 7 7 8 8 8 8 6 8 10 10 11 11 11 10 9 10 10 12 12 11 11 10 10 9 9 9 9 9 10 9 9 9 9 9 9 9
7 7 7 7 7 7 7 7 7 7 7 7 7 7 6 7 8 9 10 10 10 10 8 9 9 10 11 11 11 11 10 9 9 9 10 10 9 9 8 9 9 10 10 9 9
6 6 7 6 6 7 6 6 6 6 6 6 6 7 7 7 7 8 9 8 9 8 8 8 9 10 11 12 12 10 11 10 9 9 9 9 9 9 9 10 10 10 10 10 9
6 6 6 6 6 6 6 6 6 6 6 6 6 7 7 7 6 7 8 7 8 7 8 9 9 11 12 13 14 13 12 10 10 9 9 9 9 9 9 10 10 10 10 10 9
6 6 6 6 6 6 6 5 6 6 6 5 6 6 6 6 6 6 8 7 7 8 9 9 11 12 13 14 14 12 12 11 11 9 8 8 8 9 8 9 9 9 10 9 9
6 6 6 6 6 6 5 5 4 5 6 6 6 6 6 6 7 7 7 8 8 9 10 10 11 13 13 14 14 12 12 9 9 9 9 8 8 8 9 9 9 9 9 10 9
6 6 6 6 6 6 6 5 6 6 6 7 6 7 6 6 8 7 7 9 9 10 11 12 13 13 13 12 13 14 12 10 11 9 8 8 8 8 8 9 8 9 9 9 9
6 6 6 6 6 5 5 6 6 6 8 7 7 7 7 7 8 8 8 9 10 11 11 12 13 13 13 13 14 14 13 11 10 10 10 9 7 8 8 9 9 8 9 9 9
6 6 6 6 6 5 6 6 7 7 6 8 8 7 7 8 9 8 8 9 10 11 11 12 13 13 12 13 13 13 13 10 12 11 10 9 9 7 8 8 9 9 8 9 10
6 6 6 6 6 6 6 7 7 7 9 9 8 8 8 9 9 8 8 9 10 11 11 13 12 12 12 13 13 12 12 12 11 13 14 11 12 7 8 9 9 9 9 9 10
7 6 6 6 5 6 7 7 7 9 9 9 9 9 9 10 9 9 9 9 11 11 11 12 11 12 13 13 12 11 13 12 11 13 15 13 13 12 12 12 10 10 9 10 9
6 6 5 6 6 6 7 7 10 9 9 8 9 10 10 10 10 10 10 11 11 12 13 13 13 12 12 13 13 12 13 11 13 13 13 15 15 12 13 12 11 9 10 10 10
6 5 6 6 6 7 7 9 9 9 9 9 9 10 10 10 9 10 11 11 11 11 13 13 13 12 12 12 13 13 13 14 11 14 14 13 15 13 12 12 11 10 10 10 9
6 5 5 6 7 7 7 9 8 8 8 9 9 9 10 11 10 11 11 11 10 10 11 12 13 13 12 12 12 13 14 14 15 15 13 12 12 15 13 12 12 12 10 11 10
6 7 6 7 7 7 9 8 8 7 7 8 9 10 10 10 10 10 10 9 10 10 9 11 12 14 12 12 13 13 13 14 15 16 16 14 13 13 15 14 13 11 12 11 10
6 8 7 7 7 9 9 8 7 8 7 8 8 9 9 9 10 10 10 9 9 10 10 10 12 13 13 13 13 13 14 14 15 16 16 17 13 12 12 13 13 11 11 12 11
7 7 6 6 9 9 8 8 8 8 8 8 8 8 8 9 9 9 9 8 8 9 9 10 11 13 13 13 13 13 14 14 15 15 16 17 14 13 13 11 11 11 11 11 11
6 8 7 7 8 9 8 8 8 7 7 7 7 8 8 8 9 8 9 8 8 9 8 9 10 11 12 10 11 13 13 14 14 15 16 16 13 13 14 14 14 13 11 10 10
6 8 8 9 8 8 8 8 8 8 7 7 7 7 8 8 9 9 9 8 8 8 8 9 10 11 11 10 11 13 13 14 14 14 15 17 16 14 13 14 14 14 13 10 10
6 7 7 8 7 7 7 7 7 7 6 8 7 7 7 8 7 7 8 9 9 8 8 9 9 10 9 10 10 12 13 13 13 14 14 15 14 14 11 12 14 14 13 12 11
5 6 6 7 7 8 8 7 7 6 6 6 6 6 7 7 6 7 7 7 8 7 8 9 9 9 11 11 11 11 12 13 13 14 14 14 13 13 9 12 13 14 13 12 11

GFSSW_700_temp_114.txt.gz
Temp
11 11 11 11 10 11 11 11 11 11 11 11 11 11 12 12 12 12 12 13 12 12 13 12 12 13 9 9 9 10 10 11 11 10 10 12 12 12 12 12 11 10 10 9 9
10 10 10 10 10 10 10 10 10 10 11 11 11 11 11 11 12 12 12 12 13 12 12 13 12 10 10 10 11 10 10 10 11 10 11 11 12 11 11 12 11 11 10 9 9
10 10 10 10 10 10 10 10 10 10 10 10 11 11 11 11 11 12 12 12 12 12 12 12 10 10 11 12 11 11 10 10 10 11 11 11 11 11 12 12 11 10 9 9 9
9 9 9 9 9 9 9 9 9 10 10 10 10 10 10 10 10 10 11 12 12 12 12 12 10 11 11 12 12 11 10 10 11 10 10 11 11 12 12 11 11 10 9 9 9
9 9 9 9 9 9 9 9 9 9 9 10 10 10 10 10 9 11 11 12 12 12 12 12 10 11 12 13 12 10 10 10 10 9 10 10 11 11 11 11 10 10 9 9 9
8 8 8 8 8 8 8 8 8 9 9 9 9 9 9 9 7 10 11 11 11 12 12 10 10 11 13 12 11 11 10 11 10 10 10 10 11 10 10 11 10 10 9 9 10
8 8 8 8 8 7 8 8 8 8 8 8 9 9 9 8 9 9 10 11 11 11 12 10 10 12 12 12 11 12 11 10 10 10 10 11 10 10 11 11 10 10 10 10 10
7 8 8 7 7 7 7 7 7 7 7 8 8 8 8 7 8 9 9 10 11 11 9 10 10 11 12 12 11 11 10 9 9 9 9 10 10 10 10 11 10 10 10 10 10
7 7 7 7 7 7 7 7 7 7 7 7 7 8 7 7 9 8 8 8 8 9 9 10 10 11 11 12 12 12 11 9 9 8 8 9 9 10 10 11 11 11 11 10 10
7 7 7 7 7 7 7 6 6 6 7 7 7 8 8 7 7 7 8 8 8 9 9 10 10 11 12 13 14 14 13 10 10 9 9 9 9 9 10 11 11 11 11 10 9
7 7 7 7 7 7 7 6 6 6 7 6 7 7 8 8 7 7 8 8 9 9 9 9 10 12 13 14 13 14 12 10 9 9 8 8 7 9 10 11 11 11 11 10 9
7 7 7 7 7 7 7 6 6 6 7 7 7 7 7 8 7 8 8 8 9 10 10 11 11 13 14 14 12 13 13 10 9 9 9 8 8 8 9 10 11 11 10 10 11
7 7 7 7 7 7 7 7 5 5 6 8 8 8 8 8 9 8 8 9 9 10 11 13 13 13 14 13 13 13 14 12 10 9 8 8 8 8 9 9 10 10 10 10 10
7 7 7 7 7 7 5 5 6 6 6 9 8 8 8 8 9 9 9 10 11 11 12 13 14 14 14 14 13 15 12 11 8 8 8 8 7 7 7 8 9 10 9 10 9
7 7 7 7 7 7 6 6 7 6 8 10 9 9 9 9 10 9 9 10 11 12 12 13 13 14 14 15 14 11 11 11 9 9 9 8 8 9 7 8 8 8 10 9 9
7 7 7 7 7 7 6 6 6 6 9 10 10 9 9 10 10 10 9 10 11 12 12 13 14 14 14 14 14 11 12 11 11 9 9 10 10 8 9 11 9 9 10 9 9
7 7 7 7 6 5 6 6 6 9 10 11 11 10 10 11 11 10 10 10 11 12 13 13 13 14 13 14 14 12 14 12 10 11 12 11 11 12 13 11 11 10 9 10 10
7 7 7 7 7 7 7 7 8 11 11 10 11 10 9 10 11 11 11 11 12 13 14 14 14 13 14 14 14 14 14 14 12 12 11 11 12 13 13 13 13 12 11 10 10
7 7 7 7 8 8 7 8 10 11 10 11 11 11 11 11 11 11 12 12 13 12 14 14 14 14 14 14 14 14 14 15 14 10 12 10 9 12 13 13 12 11 11 11 10
6 6 7 7 8 8 7 10 10 9 10 10 10 10 10 10 12 12 11 12 12 12 12 13 14 15 14 13 14 14 15 15 13 11 12 10 10 9 11 12 11 11 11 11 9
6 6 8 8 8 7 9 10 9 9 9 10 11 11 10 10 11 11 10 11 12 11 11 12 12 15 14 14 14 14 14 15 16 15 12 12 14 13 12 11 12 13 13 12 11
7 7 8 8 8 10 10 10 9 9 9 10 10 10 11 10 11 10 9 10 10 11 12 12 13 14 14 14 14 14 15 15 16 16 16 16 15 14 13 11 12 12 13 12 12
7 8 8 8 9 10 10 9 9 10 9 9 10 10 10 10 10 9 8 9 9 10 10 10 12 13 14 14 14 14 14 15 15 16 16 17 13 14 13 13 13 12 12 12 12
7 9 9 9 9 10 10 10 10 9 9 9 9 9 10 10 10 10 10 8 9 10 9 9 11 12 11 11 11 12 13 15 15 16 16 17 13 14 15 13 13 12 12 12 12
7 8 9 10 10 10 9 9 9 10 9 9 9 9 9 9 10 10 10 9 9 9 9 10 10 11 11 11 11 11 12 13 15 15 16 17 15 13 13 12 11 11 12 11 12
6 7 8 9 9 9 9 9 9 9 8 9 9 9 9 9 8 8 9 9 8 9 9 10 10 10 11 11 11 11 12 13 14 15 15 16 16 14 12 13 10 10 10 12 11
6 6 6 8 9 9 10 9 9 8 8 7 7 8 9 8 8 8 8 9 9 8 8 9 10 10 10 11 10 11 12 11 14 15 15 15 12 12 11 11 7 9 9 11 10

GFSSW_700_temp_117.txt.gz
Temp
11 11 11 11 11 11 11 11 11 11 11 11 12 12 12 12 12 12 13 13 13 12 12 12 12 12 10 9 10 10 11 10 10 12 11 11 11 12 11 11 11 10 10 9 9
10 10 10 10 10 10 11 11 11 11 11 11 11 12 12 12 12 12 11 12 12 13 12 12 12 12 11 10 10 11 11 10 11 11 11 12 11 11 11 9 9 9 9 9 9
10 10 10 10 10 10 10 10 10 10 10 11 11 11 11 11 12 12 11 12 12 12 12 12 12 10 11 11 10 11 11 11 11 11 11 12 12 11 11 9 10 10 9 9 8
9 9 9 9 9 9 9 10 10 10 10 10 10 11 11 11 11 12 11 12 12 12 12 12 13 10 11 11 11 10 11 11 11 11 10 10 10 10 11 11 11 11 9 9 9
9 9 9 9 9 9 9 9 9 10 10 10 10 10 10 11 10 10 11 12 12 12 12 12 12 11 11 12 12 11 11 11 10 10 9 10 10 11 11 11 11 11 9 9 9
8 8 8 9 9 9 9 9 9 9 9 9 10 10 10 10 9 10 10 11 12 12 12 12 12 11 12 12 13 12 11 11 11 9 9 9 9 10 11 11 9 10 9 9 9
8 8 8 8 8 8 8 8 8 8 8 9 9 9 9 9 8 9 11 10 11 11 12 11 11 11 12 12 12 11 11 10 9 9 9 10 9 11 11 10 10 10 9 9 9
8 8 8 8 8 8 8 8 8 8 8 8 9 9 9 9 8 9 10 10 11 11 11 11 11 11 11 12 11 10 10 10 9 9 9 10 10 10 10 10 10 10 10 10 9
7 8 8 8 8 7 7 7 7 7 7 8 8 8 8 8 8 9 8 10 10 11 10 10 10 10 11 11 11 11 10 10 9 9 9 10 10 11 11 10 10 10 10 10 9
8 8 8 8 7 7 7 6 6 6 7 7 8 8 8 8 8 8 7 8 10 10 10 10 10 10 11 11 12 9 10 9 9 9 9 9 10 10 10 11 11 10 10 10 10
8 8 8 8 8 7 7 6 6 6 7 7 8 8 8 8 8 8 8 8 8 9 9 10 10 10 12 12 12 12 12 10 9 8 9 8 9 10 10 11 10 10 10 10 10
8 8 8 8 8 7 7 6 6 6 7 7 8 7 8 8 8 8 8 8 9 9 9 10 10 11 12 12 12 12 11 10 9 9 8 8 8 8 10 11 11 10 11 10 10
8 8 8 8 8 7 6 7 7 6 7 8 8 8 8 8 8 8 8 9 9 10 10 10 13 13 12 13 13 10 11 10 10 9 8 8 8 10 9 11 10 10 10 11 10
8 8 8 8 7 7 7 7 7 7 7 9 9 9 8 8 9 9 9 9 10 10 11 11 13 13 13 14 14 12 11 9 10 9 8 8 8 8 9 11 9 9 9 10 10
8 8 8 8 7 7 7 6 7 7 7 9 9 9 9 9 10 9 9 10 10 11 11 12 13 13 14 14 14 12 10 9 10 10 9 7 7 9 8 9 9 9 9 10 10
8 8 8 8 7 6 7 8 7 7 9 10 10 10 9 10 10 10 10 10 10 11 12 13 13 14 14 14 13 10 10 9 9 8 7 10 8 9 9 11 10 10 9 10 9
8 8 8 7 8 8 8 7 7 9 10 11 11 10 10 10 10 10 10 10 10 11 12 13 13 14 14 12 12 12 11 10 8 8 8 9 9 11 10 11 10 10 10 9 9
8 8 8 8 8 8 8 7 8 10 11 11 11 10 10 9 10 11 10 10 11 11 12 13 13 14 14 14 12 12 13 10 10 9 9 9 8 10 10 9 10 9 9 9 9
8 7 8 9 8 8 8 8 9 10 10 11 11 10 10 10 11 11 11 12 12 13 13 13 14 14 14 14 14 14 13 14 12 10 9 9 8 9 11 11 10 9 10 10 9
8 8 9 9 8 8 7 9 10 10 10 10 10 10 10 10 10 11 11 11 12 12 12 12 12 14 14 14 14 14 14 14 13 8 8 9 8 8 11 9 10 10 9 10 10
7 7 8 8 8 8 8 9 10 10 10 10 10 10 10 10 10 10 10 10 11 12 12 12 12 13 14 14 14 14 14 14 15 14 9 10 10 12 12 13 10 10 10 11 10
7 8 8 8 8 8 9 10 10 10 10 10 10 10 10 10 10 10 9 10 10 11 11 11 11 12 13 14 14 14 14 14 14 14 15 13 12 14 13 13 13 12 12 11 11
7 8 8 9 8 9 10 10 10 10 9 9 9 9 10 10 10 9 10 9 10 10 10 10 11 12 13 13 14 13 14 14 14 15 15 14 14 14 13 12 12 13 12 12 11
7 8 9 9 9 10 10 10 10 9 9 9 9 9 10 10 10 10 9 9 9 10 10 10 10 10 11 11 11 12 12 12 13 14 15 15 15 14 12 13 12 13 13 13 11
7 8 8 8 10 10 10 10 10 10 9 9 9 9 9 9 9 9 9 9 9 9 9 9 10 10 11 11 11 11 12 12 12 12 12 15 15 14 13 12 11 12 12 12 12
7 6 7 8 9 9 9 10 10 9 9 9 9 9 9 9 9 8 9 9 9 9 9 9 9 10 10 11 11 11 11 11 10 11 13 13 14 12 12 13 12 12 12 11 11
6 6 6 8 9 9 10 9 9 9 8 8 8 8 8 8 8 8 8 9 9 8 9 9 9 9 9 9 10 10 8 9 9 10 8 10 12 13 13 13 13 12 11 9 10

GFSSW_700_temp_123.txt.gz
Temp
10 10 10 10 10 11 11 11 11 11 12 12 12 12 12 12 12 12 12 12 12 12 12 12 11 10 10 10 10 9 10 10 10 9 9 10 11 11 10 11 10 10 10 10 9
9 9 10 10 10 10 10 11 11 11 11 11 12 12 12 12 12 12 12 12 12 12 11 11 11 11 10 9 10 10 10 11 11 9 9 9 10 11 10 10 10 10 10 9 9
9 9 9 9 10 10 10 10 10 10 11 11 11 12 12 12 11 11 12 12 12 12 11 11 12 11 10 10 9 10 10 10 11 9 9 10 9 9 10 10 11 11 10 9 8
9 9 9 9 9 9 9 10 10 10 10 11 11 11 11 11 11 11 11 12 12 12 11 11 12 11 10 10 10 10 10 11 10 10 9 9 9 9 10 10 10 10 10 9 9
8 8 9 9 9 9 9 9 9 10 10 10 11 11 11 11 10 10 11 11 12 12 11 12 12 11 10 10 10 10 10 10 10 10 9 9 9 9 9 9 9 9 9 9 9
8 8 8 9 9 9 9 9 9 9 9 10 10 10 10 10 10 9 10 11 11 11 11 12 11 10 10 10 11 10 10 10 10 10 10 9 9 9 9 9 9 9 9 9 9
8 8 8 9 9 9 9 9 9 8 9 9 9 10 10 10 10 9 9 10 11 11 11 11 10 10 10 11 10 10 10 10 10 10 9 9 9 9 8 9 9 9 9 9 9
8 8 9 9 9 9 8 8 8 8 8 8 8 8 8 9 8 8 9 10 11 11 10 10 10 10 10 10 10 10 9 9 9 9 9 9 9 8 9 9 9 9 9 9 9
9 9 9 9 9 8 8 8 8 8 8 8 8 8 7 8 8 8 9 9 10 10 10 9 9 9 10 9 10 10 10 9 8 9 8 8 9 8 9 9 9 9 9 9 9
9 9 9 9 8 8 8 8 8 8 8 8 8 8 8 7 7 7 9 9 9 9 9 9 9 9 10 10 10 11 10 10 8 8 8 8 8 8 8 8 9 9 9 9 9
9 9 9 9 8 8 7 7 8 8 8 8 8 8 7 7 7 7 8 8 8 8 9 9 9 10 11 10 10 11 10 9 9 8 9 8 8 8 8 8 8 9 9 9 9
9 9 9 9 8 7 7 7 8 8 8 8 8 8 8 7 7 7 7 7 7 8 8 9 9 11 11 11 11 10 10 9 8 8 8 8 9 8 8 9 9 9 9 9 9
9 9 9 8 8 7 7 8 8 8 8 9 8 8 8 8 8 7 7 7 8 8 9 9 10 10 10 11 11 10 10 11 9 8 7 7 8 8 8 8 9 9 9 9 10
9 9 9 8 8 7 8 8 8 8 9 9 9 9 9 8 8 8 8 8 8 9 9 9 10 10 10 11 10 10 10 10 9 10 7 7 8 9 8 8 8 8 9 9 9
9 9 9 8 8 8 8 8 8 8 6 10 9 10 9 9 9 9 8 8 8 9 9 10 10 11 11 11 11 11 10 10 10 10 7 7 7 10 8 8 9 9 8 9 9
9 9 8 8 8 8 8 8 8 8 9 10 10 10 9 9 9 9 9 9 9 9 10 10 10 10 11 11 12 12 10 10 10 9 7 8 8 9 9 9 8 8 8 9 9
8 8 8 8 8 8 8 9 9 9 10 10 10 10 9 9 10 9 9 10 9 10 11 11 11 12 11 12 11 11 10 9 8 7 6 9 7 10 10 10 10 9 8 9 9
8 8 8 8 8 8 9 9 9 9 9 9 10 10 10 10 9 9 9 9 10 10 10 11 11 12 12 13 12 12 11 12 8 7 9 8 8 13 12 11 10 10 10 8 9
8 8 8 8 8 8 9 9 9 9 10 10 10 10 10 10 10 10 9 10 10 10 11 12 12 12 12 12 12 11 11 12 11 9 8 10 11 13 12 11 11 11 10 9 9
8 8 8 8 8 8 9 9 9 9 9 10 10 10 10 10 10 10 9 9 10 11 11 11 12 12 12 11 12 13 12 11 11 8 8 9 10 13 13 12 11 12 11 10 9
8 8 8 8 8 9 9 9 9 9 9 9 10 9 10 9 10 10 9 9 10 10 10 11 12 12 12 11 12 12 12 13 12 11 8 9 12 14 14 13 12 12 11 10 10
7 7 8 8 8 8 9 8 9 9 9 9 9 9 9 9 9 10 9 9 10 10 10 11 11 12 11 12 11 12 12 13 13 12 11 12 13 13 13 13 12 12 10 10 10
8 7 8 8 9 8 8 9 9 9 9 9 9 9 9 9 9 9 9 9 9 9 10 10 10 10 11 11 11 11 11 12 13 12 12 11 13 13 13 12 11 11 11 11 10
7 7 7 7 8 8 8 9 9 9 9 9 8 9 9 9 9 8 8 9 9 9 9 10 9 10 9 9 10 10 11 11 12 12 11 11 11 13 12 12 11 10 10 10 9
7 7 7 7 7 8 8 9 9 9 9 9 9 9 9 8 9 9 8 9 9 9 9 9 9 9 10 9 10 9 10 10 11 10 10 10 10 12 11 11 11 11 10 10 10
7 7 7 8 7 8 8 8 9 9 9 9 9 8 8 8 8 8 8 8 8 8 9 9 8 8 9 8 9 10 9 9 9 10 9 10 10 10 10 10 10 11 11 11 10
7 7 7 7 7 7 8 9 9 9 9 9 8 8 8 8 8 8 8 8 8 8 8 8 8 8 8 9 8 9 8 8 8 8 9 10 9 10 9 10 10 10 10 10 10